White Plains, CT

4:06 PM EDT on July 24, 2017 (GMT -0400)
Westchester County

Weather History for KHPN - December, 2013

Change the Weather History Date:

Sunday, December 22, 2013

  Actual Average Record
Temperature  
Mean Temperature 59 °F -  
Max Temperature 68 °F 38 °F 68 °F (2013)
Min Temperature 50 °F 25 °F 5 °F (1989)
Degree Days  
Heating Degree Days 6    
Growing Degree Days 9 (Base 50)    
Moisture  
Dew Point 54 °F    
Average Humidity 84    
Maximum Humidity 100    
Minimum Humidity 68    
Precipitation  
Precipitation 0.00 in - - ()
Sea Level Pressure  
Sea Level Pressure 29.88 in    
Wind  
Wind Speed 5 mph (South)    
Max Wind Speed 14 mph    
Max Gust Speed 25 mph    
Visibility 8 miles    
Events Rain    
Averages and records for this station are not official NWS values.
T = Trace of Precipitation, MM = Missing Value Source: NWS Daily Summary

Daily Weather History Graph

Daily Weather History Graph

Search for Another Location

Airport or City:

Trip Planner

Search our weather history database for the weather conditions in past years. The results will help you decide how hot, cold, wet, or windy it might be!

Date:

Astronomy

Dec. 22, 2013 Rise Set
Actual Time 7:17 AM EST 4:30 PM EST
Civil Twilight 6:45 AM EST 5:01 PM EST
Nautical Twilight 6:11 AM EST 5:36 PM EST
Astronomical Twilight 5:37 AM EST 6:09 PM EST
Moon 9:42 PM EST (12/22) 10:09 AM EST (12/22)
Length of Visible Light 10h 15m
Length of Day
9h 13m
Waning Gibbous, 77% of the Moon is Illuminated
Dec 22
Waning Gibbous
Dec 25
Last Quarter
Jan 1
New
Jan 7
First Quarter
Jan 15
Full

Hourly Weather History & Observations

Time (EST) Temp. Dew Point Humidity Pressure Visibility Wind Dir Wind Speed Gust Speed Precip Events Conditions
12:56 AM 50.0 °F 48.0 °F 93% 29.90 in 6.0 mi SE 3.5 mph - N/A   Scattered Clouds
1:56 AM 52.0 °F 48.9 °F 89% 29.88 in 7.0 mi South 3.5 mph - 0.00 in Rain Light Rain
2:56 AM 53.1 °F 50.0 °F 89% 29.87 in 7.0 mi South 5.8 mph - 0.00 in   Overcast
3:56 AM 55.9 °F 54.0 °F 93% 29.84 in 7.0 mi South 8.1 mph - N/A   Overcast
4:56 AM 57.0 °F 55.0 °F 93% 29.84 in 7.0 mi South 5.8 mph - N/A   Overcast
5:56 AM 55.9 °F 54.0 °F 93% 29.81 in 4.0 mi SSE 4.6 mph - N/A   Overcast
6:08 AM 55.4 °F 55.4 °F 100% 29.81 in 2.5 mi South 4.6 mph - N/A   Overcast
6:56 AM 55.0 °F 53.1 °F 93% 29.84 in 1.5 mi South 5.8 mph - N/A   Overcast
7:56 AM 55.9 °F 54.0 °F 93% 29.86 in 4.0 mi South 6.9 mph - N/A   Overcast
8:11 AM 57.2 °F 55.4 °F 94% 29.86 in 5.0 mi South 6.9 mph - N/A   Mostly Cloudy
8:56 AM 57.9 °F 55.0 °F 90% 29.87 in 6.0 mi South 6.9 mph - N/A   Overcast
9:56 AM 59.0 °F 55.9 °F 90% 29.89 in 8.0 mi South 3.5 mph - 0.00 in   Mostly Cloudy
10:56 AM 62.1 °F 57.0 °F 84% 29.92 in 10.0 mi Calm Calm - N/A   Mostly Cloudy
11:56 AM 64.0 °F 57.9 °F 80% 29.90 in 8.0 mi Variable 4.6 mph - 0.00 in   Overcast
12:56 PM 68.0 °F 57.0 °F 68% 29.88 in 10.0 mi Variable 3.5 mph - N/A   Mostly Cloudy
1:56 PM 66.9 °F 57.0 °F 70% 29.86 in 10.0 mi South 6.9 mph - N/A   Mostly Cloudy
2:56 PM 63.0 °F 55.0 °F 75% 29.85 in 10.0 mi South 11.5 mph 20.7 mph 0.00 in   Mostly Cloudy
3:56 PM 61.0 °F 57.0 °F 87% 29.85 in 10.0 mi South 13.8 mph 25.3 mph 0.00 in   Mostly Cloudy
4:56 PM 61.0 °F 54.0 °F 78% 29.87 in 10.0 mi South 12.7 mph 21.9 mph N/A   Mostly Cloudy
5:56 PM 61.0 °F 54.0 °F 78% 29.91 in 10.0 mi Variable 3.5 mph - 0.00 in   Mostly Cloudy
6:56 PM 64.0 °F 54.0 °F 70% 29.91 in 10.0 mi Variable 3.5 mph - N/A   Mostly Cloudy
7:56 PM 63.0 °F 54.0 °F 72% 29.94 in 10.0 mi Calm Calm - N/A   Mostly Cloudy
8:56 PM 62.1 °F 54.0 °F 75% 29.95 in 10.0 mi SW 6.9 mph - N/A   Mostly Cloudy
9:56 PM 62.1 °F 54.0 °F 75% 29.95 in 10.0 mi SW 3.5 mph - N/A   Mostly Cloudy
10:56 PM 61.0 °F 54.0 °F 78% 29.95 in 10.0 mi West 4.6 mph - N/A   Mostly Cloudy
11:56 PM 60.1 °F 54.0 °F 80% 29.95 in 10.0 mi SW 4.6 mph - N/A   Scattered Clouds